Location: Peebles
(55.6412°N, 3.1714°W)
Time: 17:40:16
(UTC+01:00)

USA 281 - Pass Details

Date: 02 February 2022
Orbit: 1070 x 1089 km, 106.0° (Epoch: 25 March)

Event Time Altitude Azimuth Distance (km) Brightness Sun altitude
Rises 02:45:53 0° 29° (NNE) 3,907 6.9 -43.0°
Reaches altitude 10° 02:48:25 10° 30° (NNE) 2,948 6.1 -42.8°
Enters shadow 02:51:39 32° 32° (NNE) 1,790 4.6 -42.4°
